Location: Pasadena-CA
(34.1440°N, 118.1100°W)
Time: 05:08:35
(UTC-07:00)

NOAA 19 - Pass Details

Date: 29 June 2022
Orbit: 840 x 861 km, 99.1° (Epoch: 15 August)

Event Time Altitude Azimuth Distance (km) Brightness Sun altitude
Rises 21:06:13 0° 195° (SSW) 3,418 8.1 -10.9°
Reaches altitude 10° 21:08:58 10° 208° (SSW) 2,484 7.5 -11.3°
Maximum altitude 21:13:30 26° 263° (W) 1,622 7.2 -12.0°
Drops below altitude 10° 21:18:04 10° 319° (NW) 2,487 9.1 -12.8°
Sets 21:20:50 0° 332° (NNW) 3,423 9.8 -13.2°
